SICH 1

Satellite information

Favourite Embed

Satellite Type and Status

PAYLOADIN ORBIT

Key statistics

Satellite SICH 1 at a glance.

Uptime

11017

Days in orbit

Revolutions

≈ 14.9

Per day

Orbit

LEO

Low Earth Orbit

Inclination

82.5

Latest

Satellite identification and parameters

Extended collection of information and parameters for SICH 1.

Object identification

Identified? True

Debris? False

Object name: SICH 1

International designator: 1995-046A

Object number (NORAD): 23657

Object ID (CCSDS): 23657

Country: UKRAINE (UKR)

Current information (Y/N): Y

RCS size: LARGE

Orbital parameters

Period: 96.41 minutes

Inclination: 82.5224 deg

SMA: 6964.786 km

Apoapsis: 600.471 km

Periapsis: 572.831 km

RAAN: 262.6944 deg

Eccentricy: 0.00198431

Argument of periapsis: 26.6494 deg

Mean anomaly: 333.5742 deg

Mean motion: 14.93623358 rev/day

Mean motion (dot): 0.00003317 rev/day2

B* drag term: 0.00031071437 1/REarth

Two-line elements (TLE)

Creation date: Oct. 28, 2025, 7:11 p.m.

Reference frame: TEME

Reference center: EARTH

Epoch: Oct. 28, 2025, 9:55 a.m. UTC

TLE line 0: 0 SICH 1

TLE line 1: 1 23657U 95046A 25301.41358018 .00003317 00000-0 31071-3 0 9997

TLE line 2: 2 23657 82.5224 262.6944 0019843 26.6494 333.5742 14.93623358631378

Live tracking on map

Real-time ground track for satellite SICH 1.

In-orbit conjunctions

There are no conjunctions computed for SICH 1, at the moment. Check back to stay up to date, as we update our databases every day.

Go to all conjunctions

Associated space launch

Ocean observation satellite

SICH 1 was lifted into orbit during the mission ‘Tsiklon-3 | Okean-O1 8’, on board a Tsiklon-3 space rocket.

The launch took place on Aug. 31, 1995, 6:49 a.m. from 32/2.

For more information about the launch, click the button.

Launch to space Tsiklon-3 | Okean-O1 8
Tsiklon-3 | Okean-O1 8

Agency: N/A

Status: Launch Successful

Launch date: Aug. 31, 1995, 6:49 a.m. UTC

Rocket: Tsiklon-3

Launch pad: 32/2

Location: Plesetsk Cosmodrome, Russian Federation

...

Latest news about this satellite

There are no fresh news available about this satellite. Check back as we update our databases every day.


Newsletter sign-up

Weekly statistics, charts and insights to help you stay on top of the space industry.